Stündliche Wetter Cedro

Heute, 21 Oktober, Mittwoch

Zeit Temperatur Niederschläge Wind Luftdruck Luftfeuchtigkeit
00:00 +24°C° 0 mm 1 m/S 737 mmHg 61%
01:00 +24°C° 0 mm 1 m/S 737 mmHg 66%
02:00 +23°C° 0 mm 1 m/S 737 mmHg 71%
03:00 +20°C° 0 mm 0 m/S 737 mmHg 73%
04:00 +22°C° 0 mm 1 m/S 738 mmHg 71%
05:00 +23°C° 0 mm 1 m/S 738 mmHg 69%
06:00 +23°C° 0 mm 1 m/S 738 mmHg 67%
07:00 +26°C° 0 mm 2 m/S 738 mmHg 56%
08:00 +30°C° 0 mm 2 m/S 739 mmHg 45%
09:00 +34°C° 0 mm 3 m/S 739 mmHg 34%
10:00 +37°C° 0 mm 3 m/S 739 mmHg 29%
11:00 +39°C° 0 mm 3 m/S 738 mmHg 23%
12:00 +42°C° 0 mm 3 m/S 737 mmHg 17%
13:00 +42°C° 0 mm 3 m/S 736 mmHg 17%
14:00 +42°C° 0 mm 3 m/S 735 mmHg 17%
15:00 +43°C° 0 mm 3 m/S 734 mmHg 17%
16:00 +40°C° 0 mm 3 m/S 735 mmHg 20%
17:00 +38°C° 0 mm 3 m/S 735 mmHg 24%
18:00 +36°C° 0 mm 2 m/S 735 mmHg 27%
19:00 +35°C° 0 mm 2 m/S 736 mmHg 33%
20:00 +34°C° 0 mm 2 m/S 736 mmHg 40%
21:00 +32°C° 0 mm 2 m/S 737 mmHg 46%
22:00 +30°C° 0 mm 2 m/S 737 mmHg 52%
23:00 +29°C° 0 mm 2 m/S 737 mmHg 58%

Morgen, 22 Oktober, Donnerstag

Zeit Temperatur Niederschläge Wind Luftdruck Luftfeuchtigkeit
00:00 +28°C° 0 mm 2 m/S 737 mmHg 64%
01:00 +27°C° 0 mm 1 m/S 737 mmHg 69%
02:00 +26°C° 0 mm 1 m/S 736 mmHg 74%
03:00 +24°C° 0 mm 1 m/S 736 mmHg 79%
04:00 +24°C° 0 mm 1 m/S 737 mmHg 78%
05:00 +25°C° 0 mm 1 m/S 737 mmHg 78%
06:00 +25°C° 0 mm 1 m/S 738 mmHg 77%
07:00 +28°C° 0 mm 2 m/S 738 mmHg 65%
08:00 +31°C° 0 mm 2 m/S 738 mmHg 53%
09:00 +35°C° 0 mm 3 m/S 738 mmHg 41%
10:00 +37°C° 0 mm 3 m/S 737 mmHg 35%
11:00 +39°C° 0 mm 3 m/S 737 mmHg 29%
12:00 +42°C° 0 mm 3 m/S 736 mmHg 23%
13:00 +42°C° 0 mm 3 m/S 735 mmHg 23%
14:00 +42°C° 0 mm 3 m/S 735 mmHg 22%
15:00 +42°C° 0 mm 4 m/S 734 mmHg 22%
16:00 +39°C° 0 mm 3 m/S 734 mmHg 27%
17:00 +37°C° 0 mm 3 m/S 735 mmHg 31%
18:00 +34°C° 0 mm 2 m/S 735 mmHg 36%
19:00 +31°C° 0.1 mm 2 m/S 736 mmHg 45%
20:00 +30°C° 0.1 mm 2 m/S 736 mmHg 53%
21:00 +28°C° 0.1 mm 2 m/S 737 mmHg 61%
22:00 +27°C° 1.9 mm 2 m/S 737 mmHg 69%
23:00 +26°C° 1.9 mm 1 m/S 737 mmHg 77%

übermorgen, 23 Oktober, Freitag

Zeit Temperatur Niederschläge Wind Luftdruck Luftfeuchtigkeit
00:00 +25°C° 1.9 mm 1 m/S 737 mmHg 85%
01:00 +25°C° 0.7 mm 1 m/S 737 mmHg 85%
02:00 +25°C° 0.7 mm 1 m/S 737 mmHg 85%
03:00 +25°C° 0.7 mm 1 m/S 736 mmHg 85%
04:00 +25°C° 0 mm 1 m/S 737 mmHg 84%
05:00 +25°C° 0 mm 1 m/S 737 mmHg 83%
06:00 +25°C° 0 mm 2 m/S 738 mmHg 83%
07:00 +27°C° 0 mm 2 m/S 738 mmHg 73%
08:00 +30°C° 0 mm 3 m/S 738 mmHg 63%
09:00 +33°C° 0 mm 3 m/S 739 mmHg 53%
10:00 +35°C° 0 mm 3 m/S 738 mmHg 45%
11:00 +37°C° 0 mm 3 m/S 737 mmHg 37%
12:00 +39°C° 0 mm 3 m/S 736 mmHg 30%
13:00 +39°C° 0 mm 3 m/S 736 mmHg 29%
14:00 +39°C° 0 mm 3 m/S 735 mmHg 28%
15:00 +39°C° 0 mm 2 m/S 734 mmHg 27%
16:00 +37°C° 0 mm 2 m/S 734 mmHg 31%
17:00 +36°C° 0 mm 2 m/S 735 mmHg 34%
18:00 +34°C° 0 mm 2 m/S 735 mmHg 37%
19:00 +32°C° 0 mm 2 m/S 735 mmHg 42%
20:00 +31°C° 0 mm 2 m/S 736 mmHg 48%
21:00 +30°C° 0 mm 2 m/S 737 mmHg 53%
22:00 +29°C° 1 mm 2 m/S 736 mmHg 61%
23:00 +27°C° 1 mm 2 m/S 736 mmHg 69%

24 Oktober, Samstag

Zeit Temperatur Niederschläge Wind Luftdruck Luftfeuchtigkeit
00:00 +26°C° 1 mm 2 m/S 736 mmHg 78%
01:00 +26°C° 0.2 mm 1 m/S 736 mmHg 79%
02:00 +26°C° 0.2 mm 1 m/S 736 mmHg 80%
03:00 +26°C° 0.2 mm 1 m/S 735 mmHg 82%
04:00 +26°C° 0 mm 1 m/S 736 mmHg 81%
05:00 +26°C° 0 mm 1 m/S 736 mmHg 81%
06:00 +25°C° 0 mm 1 m/S 737 mmHg 80%
07:00 +27°C° 0 mm 2 m/S 737 mmHg 74%
08:00 +28°C° 0 mm 2 m/S 738 mmHg 68%
09:00 +29°C° 0 mm 3 m/S 738 mmHg 61%
10:00 +31°C° 0 mm 3 m/S 738 mmHg 55%
11:00 +33°C° 0 mm 3 m/S 737 mmHg 50%
12:00 +35°C° 0 mm 3 m/S 737 mmHg 44%
13:00 +36°C° 0 mm 2 m/S 736 mmHg 39%
14:00 +37°C° 0 mm 2 m/S 735 mmHg 35%
15:00 +38°C° 0 mm 2 m/S 734 mmHg 31%
16:00 +36°C° 0 mm 2 m/S 734 mmHg 34%
17:00 +33°C° 0 mm 1 m/S 734 mmHg 38%
18:00 +32°C° 0 mm 1 m/S 735 mmHg 41%
19:00 +31°C° 0 mm 1 m/S 735 mmHg 44%
20:00 +30°C° 0 mm 2 m/S 735 mmHg 48%
21:00 +29°C° 0 mm 2 m/S 736 mmHg 51%
22:00 +28°C° 0 mm 2 m/S 735 mmHg 57%
23:00 +28°C° 0 mm 2 m/S 735 mmHg 62%

25 Oktober, Sonntag

Zeit Temperatur Niederschläge Wind Luftdruck Luftfeuchtigkeit
00:00 +27°C° 0 mm 1 m/S 735 mmHg 68%
01:00 +27°C° 0 mm 1 m/S 735 mmHg 70%
02:00 +26°C° 0 mm 1 m/S 734 mmHg 73%
03:00 +26°C° 0 mm 1 m/S 734 mmHg 75%
04:00 +26°C° 0 mm 1 m/S 735 mmHg 75%
05:00 +26°C° 0 mm 2 m/S 735 mmHg 75%
06:00 +26°C° 0 mm 2 m/S 736 mmHg 75%
07:00 +28°C° 0 mm 2 m/S 736 mmHg 66%
08:00 +30°C° 0 mm 3 m/S 736 mmHg 57%
09:00 +33°C° 0 mm 3 m/S 737 mmHg 48%
10:00 +35°C° 0 mm 3 m/S 736 mmHg 42%
11:00 +37°C° 0 mm 3 m/S 736 mmHg 36%
12:00 +39°C° 0 mm 3 m/S 735 mmHg 29%
13:00 +39°C° 0 mm 3 m/S 734 mmHg 27%
14:00 +40°C° 0 mm 3 m/S 733 mmHg 25%
15:00 +40°C° 0 mm 2 m/S 733 mmHg 23%
16:00 +39°C° 0 mm 2 m/S 733 mmHg 26%
17:00 +37°C° 0 mm 2 m/S 733 mmHg 29%
18:00 +35°C° 0 mm 2 m/S 733 mmHg 33%
19:00 +34°C° 0 mm 2 m/S 734 mmHg 38%
20:00 +32°C° 0 mm 2 m/S 734 mmHg 43%
21:00 +31°C° 0 mm 3 m/S 735 mmHg 48%
22:00 +30°C° 0 mm 3 m/S 735 mmHg 56%
23:00 +28°C° 0 mm 3 m/S 735 mmHg 63%

26 Oktober, Montag

Zeit Temperatur Niederschläge Wind Luftdruck Luftfeuchtigkeit
00:00 +27°C° 0 mm 3 m/S 735 mmHg 71%
01:00 +27°C° 0 mm 2 m/S 735 mmHg 73%
02:00 +26°C° 0 mm 2 m/S 735 mmHg 76%
03:00 +26°C° 0 mm 1 m/S 735 mmHg 79%
04:00 +26°C° 0 mm 1 m/S 735 mmHg 78%
05:00 +26°C° 0 mm 1 m/S 735 mmHg 78%
06:00 +26°C° 0 mm 2 m/S 735 mmHg 77%
07:00 +28°C° 0 mm 2 m/S 736 mmHg 65%
08:00 +31°C° 0 mm 2 m/S 736 mmHg 54%
09:00 +34°C° 0 mm 3 m/S 736 mmHg 43%
10:00 +36°C° 0 mm 3 m/S 735 mmHg 36%
11:00 +38°C° 0 mm 3 m/S 735 mmHg 29%
12:00 +42°C° 0 mm 3 m/S 734 mmHg 22%
13:00 +42°C° 0 mm 3 m/S 733 mmHg 22%
14:00 +42°C° 0 mm 3 m/S 733 mmHg 21%
15:00 +42°C° 0 mm 3 m/S 732 mmHg 20%
16:00 +39°C° 0 mm 2 m/S 732 mmHg 23%
17:00 +37°C° 0 mm 2 m/S 732 mmHg 26%
18:00 +34°C° 0 mm 1 m/S 732 mmHg 29%
19:00 +34°C° 0 mm 2 m/S 733 mmHg 36%
20:00 +33°C° 0 mm 3 m/S 734 mmHg 43%
21:00 +32°C° 0 mm 4 m/S 734 mmHg 49%
22:00 +30°C° 0 mm 4 m/S 734 mmHg 55%
23:00 +28°C° 0 mm 3 m/S 735 mmHg 62%

27 Oktober, Dienstag

Zeit Temperatur Niederschläge Wind Luftdruck Luftfeuchtigkeit
00:00 +27°C° 0 mm 3 m/S 735 mmHg 68%
01:00 +27°C° 0 mm 2 m/S 735 mmHg 70%
02:00 +26°C° 0 mm 2 m/S 734 mmHg 73%
03:00 +26°C° 0 mm 1 m/S 734 mmHg 76%
04:00 +26°C° 0 mm 1 m/S 735 mmHg 76%
05:00 +26°C° 0 mm 1 m/S 735 mmHg 75%
06:00 +26°C° 0 mm 1 m/S 736 mmHg 75%
07:00 +28°C° 0 mm 1 m/S 736 mmHg 64%
08:00 +31°C° 0 mm 1 m/S 736 mmHg 54%
09:00 +34°C° 0 mm 2 m/S 737 mmHg 43%
10:00 +37°C° 0 mm 2 m/S 736 mmHg 38%
11:00 +39°C° 0 mm 2 m/S 735 mmHg 33%
12:00 +41°C° 0 mm 2 m/S 735 mmHg 27%
13:00 +40°C° 0 mm 2 m/S 734 mmHg 28%
14:00 +39°C° 0 mm 1 m/S 733 mmHg 28%
15:00 +39°C° 0 mm 1 m/S 732 mmHg 28%
16:00 +36°C° 0 mm 1 m/S 732 mmHg 31%
17:00 +36°C° 0 mm 2 m/S 732 mmHg 34%
18:00 +35°C° 0 mm 2 m/S 732 mmHg 37%
19:00 +34°C° 0 mm 3 m/S 733 mmHg 39%
20:00 +33°C° 0 mm 4 m/S 733 mmHg 42%
21:00 +32°C° 0 mm 5 m/S 734 mmHg 44%
22:00 +30°C° 0 mm 4 m/S 734 mmHg 52%
23:00 +28°C° 0 mm 3 m/S 734 mmHg 59%
Mehr zeigen